Prescott, AZ

5:25 PM MST on April 19, 2018 (GMT -0700)
Love

Weather History for KPRC - November, 2012

Change the Weather History Date:

Thursday, November 8, 2012

  Actual Average Record
Temperature  
Mean Temperature 54 °F 49 °F  
Max Temperature 68 °F 64 °F 79 °F (1950)
Min Temperature 41 °F 34 °F 22 °F (2000)
Degree Days  
Heating Degree Days 10    
Month to date heating degree days  
Since 1 July heating degree days  
Cooling Degree Days 0    
Month to date cooling degree days  
Year to date cooling degree days  
Growing Degree Days 4 (Base 50)    
Moisture  
Dew Point 31 °F    
Average Humidity 49    
Maximum Humidity 93    
Minimum Humidity 16    
Precipitation  
Precipitation 0.03 in 0.02 in 0.99 in (2004)
Month to date precipitation 0.23  
Year to date precipitation 12.32  
Sea Level Pressure  
Sea Level Pressure 29.87 in    
Wind  
Wind Speed 8 mph (South)    
Max Wind Speed 17 mph    
Max Gust Speed 43 mph    
Visibility 9 miles    
Events Rain    
T = Trace of Precipitation, MM = Missing Value Source: NWS Daily Summary

Daily Weather History Graph

Daily Weather History Graph

Search for Another Location

Airport or City:

Astronomy

Nov. 08, 2012 Rise Set
Actual Time 6:57 AM MST 5:29 PM MST
Civil Twilight 6:30 AM MST 5:55 PM MST
Nautical Twilight 6:00 AM MST 6:25 PM MST
Astronomical Twilight 5:31 AM MST 6:55 PM MST
Moon 1:10 AM MST (11/8) 1:59 PM MST (11/8)
Length of Visible Light 11h 24m
Length of Day
10h 32m
Waning Crescent, 32% of the Moon is Illuminated
Nov 8
Waning Crescent
Nov 13
New
Nov 20
First Quarter
Nov 28
Full
Dec 6
Last Quarter

Hourly Weather History & Observations

Time (MST) Temp. Windchill Dew Point Humidity Pressure Visibility Wind Dir Wind Speed Gust Speed Precip Events Conditions
12:53 AM 44.1 °F 39.5 °F 26.1 °F 49% 29.90 in 8.0 mi SSW 8.1 mph - N/A   Clear
1:53 AM 46.9 °F - 24.1 °F 41% 29.88 in 10.0 mi South 8.1 mph - N/A   Clear
2:53 AM 44.1 °F 40.8 °F 26.1 °F 49% 29.88 in 3.0 mi South 5.8 mph - N/A   Clear
3:53 AM 44.1 °F 39.5 °F 24.1 °F 45% 29.87 in 10.0 mi SSW 8.1 mph - N/A   Clear
4:53 AM 45.0 °F 40.6 °F 24.1 °F 44% 29.88 in 10.0 mi SSW 8.1 mph - N/A   Clear
5:53 AM 42.1 °F 37.1 °F 23.0 °F 47% 29.90 in 10.0 mi SSW 8.1 mph - N/A   Clear
6:53 AM 41.0 °F 35.8 °F 24.1 °F 51% 29.92 in 10.0 mi South 8.1 mph - N/A   Clear
7:53 AM 46.0 °F 41.9 °F 25.0 °F 44% 29.93 in 9.0 mi SSW 8.1 mph - N/A   Clear
8:53 AM 55.9 °F - 27.0 °F 33% 29.93 in 7.0 mi SSE 4.6 mph - N/A   Clear
9:53 AM 64.9 °F - 25.0 °F 22% 29.92 in 10.0 mi SSW 5.8 mph - N/A   Clear
10:53 AM 63.0 °F - 25.0 °F 24% 29.91 in 10.0 mi South 10.4 mph 17.3 mph N/A   Clear
11:53 AM 66.0 °F - 26.1 °F 22% 29.88 in 10.0 mi SSW 13.8 mph - N/A   Clear
12:53 PM 68.0 °F - 21.9 °F 17% 29.85 in 10.0 mi SSW 12.7 mph 23.0 mph N/A   Scattered Clouds
1:53 PM 66.9 °F - 19.0 °F 16% 29.84 in 10.0 mi WSW 17.3 mph - N/A   Mostly Cloudy
2:53 PM 61.0 °F - 30.9 °F 32% 29.89 in 10.0 mi South 16.1 mph - 0.00 in   Mostly Cloudy
3:53 PM 57.0 °F - 39.0 °F 51% 29.87 in 10.0 mi South 10.4 mph 19.6 mph 0.00 in   Mostly Cloudy
4:53 PM 57.0 °F - 39.0 °F 51% 29.85 in 10.0 mi SSE 5.8 mph - N/A   Mostly Cloudy
5:53 PM 57.0 °F - 39.0 °F 51% 29.85 in 10.0 mi South 5.8 mph - N/A   Overcast
6:53 PM 53.1 °F - 44.1 °F 71% 29.90 in 7.0 mi SSW 13.8 mph 42.6 mph 0.01 in Rain Light Rain
7:53 PM 51.1 °F - 43.0 °F 74% 29.87 in 10.0 mi South 5.8 mph - 0.02 in   Overcast
8:53 PM 50.0 °F - 44.1 °F 80% 29.84 in 10.0 mi SSE 6.9 mph - 0.00 in   Mostly Cloudy
9:53 PM 48.9 °F - 45.0 °F 86% 29.82 in 10.0 mi ESE 9.2 mph - N/A   Mostly Cloudy
10:53 PM 46.9 °F - 45.0 °F 93% 29.82 in 10.0 mi East 5.8 mph - 0.00 in   Scattered Clouds
11:53 PM 48.0 °F - 45.0 °F 89% 29.79 in 10.0 mi Calm Calm - N/A   Overcast